Hanford, CA

5:57 AM PDT on October 21, 2017 (GMT -0700)
Hanford Municipal

Weather History for KHJO - July, 2013

Change the Weather History Date:

Sunday, July 21, 2013

  Actual Average Record
Temperature  
Mean Temperature 90 °F 80 °F  
Max Temperature 106 °F 96 °F 106 °F (2005)
Min Temperature 73 °F 63 °F 57 °F (1999)
Degree Days  
Heating Degree Days 0    
Month to date heating degree days 0  
Since 1 June heating degree days 0  
Since 1 July heating degree days 0  
Cooling Degree Days 25    
Month to date cooling degree days 404  
Year to date cooling degree days 1069  
Since 1 June cooling degree days 817  
Growing Degree Days 40 (Base 50)    
Moisture  
Dew Point 55 °F    
Average Humidity 37    
Maximum Humidity 60    
Minimum Humidity 14    
Precipitation  
Precipitation 0.00 in 0.00 in 0.04 in (1979)
Month to date precipitation T 0.02  
Year to date precipitation 1.60 6.78  
Since 1 July precipitation T  
Snow  
Snow 0.00 in - - ()
Month to date snowfall 0.0  
Since 1 June snowfall 0.0  
Since 1 July snowfall 0.0  
Snow Depth -    
Sea Level Pressure  
Sea Level Pressure 29.73 in    
Wind  
Wind Speed 4 mph (NW)    
Max Wind Speed 9 mph    
Max Gust Speed 14 mph    
Visibility 10 miles    
Events      
T = Trace of Precipitation, MM = Missing Value Source: NWS Daily Summary

Daily Weather History Graph

Daily Weather History Graph

Search for Another Location

Airport or City:

Trip Planner

Search our weather history database for the weather conditions in past years. The results will help you decide how hot, cold, wet, or windy it might be!

Date:

Astronomy

Jul. 21, 2013 Rise Set
Actual Time 5:56 AM PDT 8:12 PM PDT
Civil Twilight 5:27 AM PDT 8:41 PM PDT
Nautical Twilight 4:51 AM PDT 9:17 PM PDT
Astronomical Twilight 4:12 AM PDT 9:56 PM PDT
Moon 7:16 PM PDT 4:47 AM PDT
Length of Visible Light 15h 13m
Length of Day
14h 15m
Waxing Gibbous, 99% of the Moon is Illuminated
Jul 21
Waxing Gibbous
Jul 22
Full
Jul 29
Last Quarter
Aug 6
New
Aug 14
First Quarter

Hourly Weather History & Observations

Time (PDT) Temp. Heat Index Dew Point Humidity Pressure Visibility Wind Dir Wind Speed Gust Speed Precip Events Conditions
12:53 AM 75.0 °F - 60.1 °F 60% 29.72 in 10.0 mi Calm Calm - N/A   Clear
1:53 AM 81.0 °F 81.1 °F 57.9 °F 45% 29.71 in 10.0 mi Calm Calm - N/A   Clear
2:53 AM 81.0 °F 80.7 °F 55.0 °F 41% 29.71 in 10.0 mi NW 6.9 mph - N/A   Clear
3:53 AM 79.0 °F - 53.1 °F 40% 29.70 in 10.0 mi NW 5.8 mph - N/A   Clear
4:53 AM 75.9 °F - 53.1 °F 45% 29.72 in 10.0 mi Calm Calm - N/A   Clear
5:53 AM 75.9 °F - 53.1 °F 45% 29.73 in 10.0 mi NNW 6.9 mph - N/A   Clear
6:53 AM 75.0 °F - 54.0 °F 48% 29.75 in 10.0 mi NNW 4.6 mph - N/A   Clear
7:53 AM 79.0 °F - 55.0 °F 44% 29.75 in 10.0 mi Calm Calm - N/A   Clear
8:53 AM 82.0 °F 82.0 °F 57.9 °F 44% 29.75 in 10.0 mi Calm Calm - N/A   Clear
9:53 AM 88.0 °F 86.7 °F 57.0 °F 35% 29.75 in 10.0 mi WNW 3.5 mph - N/A   Clear
10:53 AM 91.9 °F 90.0 °F 55.0 °F 29% 29.75 in 10.0 mi West 3.5 mph - N/A   Clear
11:53 AM 95.0 °F 93.4 °F 55.9 °F 27% 29.74 in 10.0 mi WNW 3.5 mph - N/A   Clear
12:53 PM 98.1 °F 96.4 °F 55.0 °F 24% 29.73 in 10.0 mi South 5.8 mph - N/A   Clear
1:53 PM 100.0 °F - 52.0 °F 20% 29.73 in 10.0 mi SSE 5.8 mph - N/A   Clear
2:53 PM 102.9 °F - 45.0 °F 14% 29.73 in 10.0 mi SSE 5.8 mph - N/A   Partly Cloudy
3:53 PM 104.0 °F - 46.9 °F 15% 29.69 in 10.0 mi South 5.8 mph - N/A   Scattered Clouds
4:53 PM 105.1 °F - 51.1 °F 16% 29.70 in 10.0 mi NE 8.1 mph - N/A   Scattered Clouds
5:53 PM 100.0 °F 98.8 °F 55.9 °F 23% 29.69 in 10.0 mi ENE 3.5 mph - N/A   Scattered Clouds
6:53 PM 100.0 °F - 52.0 °F 20% 29.71 in 10.0 mi North 3.5 mph - N/A   Scattered Clouds
7:53 PM 97.0 °F - 51.1 °F 21% 29.71 in 10.0 mi Calm Calm - N/A   Partly Cloudy
8:53 PM 95.0 °F 94.0 °F 57.9 °F 29% 29.72 in 10.0 mi NW 9.2 mph - N/A   Clear
9:53 PM 91.0 °F 90.5 °F 60.1 °F 35% 29.76 in 10.0 mi NNE 4.6 mph - N/A   Partly Cloudy
10:53 PM 91.0 °F 90.2 °F 59.0 °F 34% 29.80 in 10.0 mi NW 5.8 mph - N/A   Clear
11:53 PM 88.0 °F 87.9 °F 61.0 °F 40% 29.79 in 10.0 mi WNW 5.8 mph - N/A   Clear